Regional Weather Roundup
Issued by NWS

Home | Current Version | Previous Version | Graphics & Text | Print | Product List | Glossary Off
Versions: 1 2 3 4 5 6 7 8 9 10 11 12 13 14 15 16 17 18 19 20 21 22 23 24 25 26 27 28 29 30 31 32 33 34 35 36 37 38 39 40 41 42 43 44 45 46 47 48 49 50

553
ASUS43 KMKX 210800
RWRWI

WISCONSIN REGIONAL WEATHER ROUNDUP
NATIONAL WEATHER SERVICE MILWAUKEE/SULLIVAN WI
300 AM CDT MON AUG 21 2017

NOTE: "FAIR" INDICATES FEW OR NO CLOUDS BELOW 12,000 FEET WITH NO
SIGNIFICANT WEATHER AND/OR OBSTRUCTIONS TO VISIBILITY.

WIZ001-002-006>008-014>016-023>028-210900-
NORTHWEST WISCONSIN

CITY           SKY/WX    TMP DP  RH WIND       PRES   REMARKS
SUPERIOR ARPT    N/A     51  51 100 CALM      30.02F FOG
ASHLAND        CLEAR     56  54  93 W5        30.03F
HAYWARD        MOCLDY    51  50  96 CALM      30.03F FOG
SIREN          CLEAR     55  53  96 CALM      30.03F
CUMBERLAND     CLEAR     59  54  82 CALM      30.03S
RICE LAKE      CLEAR     61  58  89 N3        30.03F
CHETEK         PTCLDY    65  60  85 CALM      30.02F
LADYSMITH      CLOUDY    65  62  91 N7        30.03F
EAU CLAIRE     MOCLDY    67  64  90 N7        30.01R
MENOMONIE      MOCLDY    66  65  96 CALM      30.02R
NEW RICHMOND   PTCLDY    60  60  99 CALM      30.03R
OSCEOLA        PTCLDY    57  57 100 CALM      30.04S FOG
$$

WIZ003>005-009-010-017-018-210900-
NORTH CENTRAL WISCONSIN

CITY           SKY/WX    TMP DP  RH WIND       PRES   REMARKS
MANITOWISH WTR FOG       58  58 100 CALM      30.05F VSB 1/2
ARBOR VITAE    CLEAR     64  62  91 CALM      30.04F
WOODRUFF       CLEAR     64  62  91 CALM      30.04F
RHINELANDER    CLOUDY    66  64  93 CALM      30.04F
EAGLE RIVER    PTCLDY    63  61  94 N3        30.04F
LAND O LAKES   MOCLDY    63  60  90 CALM      30.07S
PHILLIPS       CLOUDY    66  62  87 N3        30.04S
TOMAHAWK         N/A     64  63  96 CALM      30.04F
MEDFORD        CLEAR     62  62  99 N5        30.01F FOG
MERRILL        FOG       61  61 100 CALM      30.02F VSB 1/2
$$

WIZ029-030-035-036-043>047-210900-
CENTRAL WISCONSIN

CITY           SKY/WX    TMP DP  RH WIND       PRES   REMARKS
WAUSAU         CLEAR     66  66 100 CALM      30.00F
MOSINEE        CLEAR     64  64 100 CALM      30.01F FOG
MARSHFIELD     CLEAR     63  61  93 SW5       30.02S
STEVENS POINT  CLEAR     62  62 100 CALM      30.01F
WAUPACA        CLEAR     67  65  96 CALM      30.00F
WAUTOMA        FOG       61  61 100 W3        30.04R VSB 1
WISC RAPIDS    CLEAR     64  64 100 SW6       30.04R FOG
CAMP DOUGLAS   CLOUDY    61  61 100 CALM      30.02R
$$

WIZ011>013-019>022-031-037>040-048>050-210900-
NORTHEAST WISCONSIN

CITY           SKY/WX    TMP DP  RH WIND       PRES   REMARKS
ANTIGO         CLEAR     60  60 100 SE5       30.03F
SHAWANO        CLEAR     68  65  92 CALM      30.00F FOG
OCONTO         PTCLDY    65  64  96 CALM      30.00F
STURGEON BAY   CLOUDY    70  67  90 CALM      30.00F
GREEN BAY      CLEAR     65  65 100 NW5       30.00F FOG
MANITOWOC      FOG       66  64  94 N3        30.01F VSB 3/4
APPLETON       CLEAR     64  64 100 CALM      29.99F
CLINTONVILLE   PTCLDY    63  63 100 CALM      30.01F
OSHKOSH        CLEAR     63  62  97 S5        30.00F
$$

WIZ032>034-041-042-053>061-210900-
SOUTHWEST WISCONSIN

CITY           SKY/WX    TMP DP  RH WIND       PRES   REMARKS
LA CROSSE      CLOUDY    71  67  87 E5        30.00S
SPARTA         PTCLDY    60  60  99 CALM      30.03R
VIROQUA        CLOUDY    65  65  97 CALM      30.04R
BOSCOBEL       FOG       62  61  96 CALM      30.02S VSB 1/4
PRAIRIE DU CHI CLOUDY    65  63  94 CALM      30.01S
PLATTEVILLE    CLOUDY    64  64 100 E3        30.04R
$$

WIZ056-057-062-063-064-067-068-210900-
SOUTH CENTRAL WISCONSIN

CITY           SKY/WX    TMP DP  RH WIND       PRES   REMARKS
REEDSBURG      CLEAR     63  63 100 CALM      30.03R
BARABOO/DELLS  CLEAR     63  61  94 CALM      30.04R
LONE ROCK      NOT AVBL
MINERAL POINT  CLOUDY    64  64 100 CALM      30.04S FOG
MADISON        CLEAR     64  63  96 N5        30.03R FOG
MIDDLETON      CLEAR     62  62 100 CALM      30.03R
WATERTOWN      CLEAR     64  64 100 SE5       30.01F FOG
MONROE         CLOUDY    68  64  88 CALM      30.03S
JANESVILLE     FOG       66  66 100 CALM      30.01S VSB 1
$$

WIZ051-052-058>065-066-070>072-210900-
SOUTHEAST WISCONSIN

CITY           SKY/WX    TMP DP  RH WIND       PRES   REMARKS
MILWAUKEE      PTCLDY    70  66  87 CALM      30.01F
WAUKESHA         N/A     63  63 100 CALM      30.03F FOG
MILWAUKEE/TIMM CLEAR     64  63  94 SE3       30.02F FOG
RACINE         CLEAR     70  68  93 CALM      30.04F
KENOSHA        CLEAR     68  66  93 E3        30.03F
FOND DU LAC    CLEAR     65  62  90 W3        30.03R
SHEBOYGAN      CLEAR     64  64 100 S3        29.99F
WEST BEND      FOG       61  61 100 CALM      30.02F VSB 1/2
JUNEAU           N/A     64  64  99 CALM      30.02F FOG
$$

LSZ147-162-210900-
LAKE SUPERIOR

STATION/POSITION TIME  TEMP    WIND        PRES    WAVE
                       AIR SEA DIR/SP/G            HT/PER
                 (UTC) (F)     (DEG/KT/KT) (MB)    (FT/S)
W MID LAKE BUOY  0650   63 60  270/ 10/ 10 1015.3R   1/ 4
DEVILS ISLAND    0700   64     210/  9/ 10 1016.6R
SAXON HARBOR     0740   60     200/  4/  6 1016.3S
$$

LMZ867-665-643>646-210900-
LAKE MICHIGAN

STATION/POSITION TIME  TEMP    WIND        PRES    WAVE
                       AIR SEA DIR/SP/G            HT/PER
                 (UTC) (F)     (DEG/KT/KT) (MB)    (FT/S)
S GREEN BAY BUOY 0730   72 71  210/  4/  6 1015.9F
N MID LAKE BUOY  0650   69 67  240/ 10/ 12 1016.4R   3/ 5
NORTHPORT PIER   0740   71      CALM  /  3 1015.6S
KEWAUNEE LAKESHO 0730   67     310/  1/  2 1015.3F
SHEBOYGAN LAKESH 0700   71     180/  4/  5 1016.2F
PORT WASHINGTON  0740   69     180/  2/  4 1016.9F
ATWATER BUOY     0609   71 70  160/  6/  6 1017.4F
MILWAUKEE LAKESH 0730   71     230/  2/  3   N/A
S MID LAKE BUOY  0650   74 72  130/  6/  6 1017.3F   1
KENOSHA   LAKESH 0700   75     260/  3/  5 1016.9
$$

TC  - TEMPERATURE IN CELSIUS
VSB - VISIBILITY IN STATUTE MILES
WCI - WIND CHILL INDEX
HX  - HEAT INDEX





USA.gov is the U.S. government's official web portal to all federal, state and local government web resources and services.